Regional Weather Roundup
Issued by NWS

Home | Current Version | Previous Version | Graphics & Text | Print | Product List | Glossary On
Versions: 1 2 3 4 5 6 7 8 9 10 11 12 13 14 15 16 17 18 19 20 21 22 23 24 25 26 27
000
ASUS45 KTFX 172110
RWRMT
MONTANA REGIONAL WEATHER ROUNDUP
NATIONAL WEATHER SERVICE GREAT FALLS MT
200 PM MST SUN DEC 17 2017

NOTE: "FAIR" INDICATES FEW OR NO CLOUDS BELOW 12000 FEET WITH NO
SIGNIFICANT WEATHER AND/OR OBSTRUCTIONS TO VISIBILITY.

MTZ001>007-043-172200-
WEST OF THE DIVIDE

CITY           SKY/WX    TMP DP  RH WIND       PRES   REMARKS
KALISPELL      CLOUDY    30  27  88 S9        30.02F WCI  22
MISSOULA       CLOUDY    25  18  74 CALM      30.09F
BUTTE          CLOUDY    24  14  65 NW6       29.99F WCI  17
MULLAN PASS    LGT SNOW  25  20  81 SW8G17    29.94F WCI  16
ANACONDA         N/A     28  16  59 S15G21    30.01F WCI  17
DEER LODGE       N/A     25  16  68 NE3       30.02F
EUREKA           N/A     34  23  64 MISG      29.98F
HAMILTON         N/A     36  19  51 SE10G16   30.05F WCI  28
LIBBY            N/A     28  23  80 W3        30.00F
RONAN            N/A     30  26  85 CALM      30.08R
$$

MTZ008-052>055-172200-
SOUTHWEST MONTANA

CITY           SKY/WX    TMP DP  RH WIND       PRES   REMARKS
BOZEMAN        CLOUDY    21  17  84 E3        30.00F
DILLON         CLOUDY    26  16  65 NW8       30.03S WCI  18
W YELLOWSTONE  CLOUDY    16  14  93 SW15      30.07S FOG     WCI   1
ENNIS          CLOUDY    25  14  63 SE16      30.07R WCI  12
THREE FORKS      N/A     21  19  92 CALM      29.99F
$$

MTZ009-010-012-014-046-048-049-054-172200-
EAST SLOPES AND CENTRAL MONTANA

CITY           SKY/WX    TMP DP  RH WIND       PRES   REMARKS
CUT BANK       FAIR      32  22  66 W40G53    29.70R WCI  16
GREAT FALLS    FAIR      37  18  46 SW21G29   29.80R WCI  26
MALMSTROM AFB  FAIR      37  20  49 SW32G39   29.80S WCI  25
HELENA         CLOUDY    35  22  58 W10       29.96F WCI  27
BOWMANS CRNR   FAIR      33  18  55 S20       29.78F WCI  21
CHOTEAU          N/A     41  18  38 SW14G23   29.75S
FAIRFIELD      FAIR      39  18  42 SW23      29.74F WCI  28
POWER          FAIR      37  21  52 SW23G30   29.75R WCI  26
RAYNESFORD     PTSUNNY   37  21  52 SW21G28   29.78R WCI  26
ULM            PTSUNNY   37  19  49 SW25G36   29.81S WCI  25
$$

MTZ011-013-016-021-045-047-050-051-172200-
NORTH CENTRAL MONTANA

CITY           SKY/WX    TMP DP  RH WIND       PRES   REMARKS
HAVRE          CLOUDY    39  26  59 SW17      29.73S WCI  30
LEWISTOWN      FAIR      36  21  54 W18       29.76F WCI  26
N BAR RANCH    FAIR      39  18  41 NW22G28   29.76S WCI  29
CHINOOK          N/A     41  23  48 W18       29.71S
DENTON         PTSUNNY   40  19  44 MISG      29.72F
GEYSER         PTSUNNY   37  21  52 W31G38    29.75S WCI  24
GRASS RANGE    FAIR      39  20  46 W21G28    29.71F WCI  29
STANFORD       FAIR      36  24  63 W8        29.75F WCI  29
WINIFRED       FAIR      40  20  44 W20G29    29.73S
$$

MTZ017>020-022>027-061-062-172200-
NORTHEAST MONTANA

CITY           SKY/WX    TMP DP  RH WIND       PRES   REMARKS
GLASGOW        CLOUDY    38  19  46 W15       29.69F WCI  29
GLENDIVE       PTSUNNY   37  20  50 SW22      29.76F WCI  26
JORDAN           N/A     41  17  38 SW16      29.73F
SIDNEY         FAIR      38  22  52 SW15      29.74F WCI  29
WOLF POINT     PTSUNNY   38  21  50 SW10      29.72F WCI  31
MALTA          CLOUDY    39  25  56 W9G15     29.72S
PLENTYWOOD       N/A     30  23  74 CALM      29.68F
POPLAR           N/A     36  21  55 SW10      29.72F WCI  28
$$

MTZ028>42-056>058-172200-
SOUTHCENTRAL AND SOUTHEAST MONTANA

CITY           SKY/WX    TMP DP  RH WIND       PRES   REMARKS
BAKER          FAIR      39  25  57 SW14      29.78F WCI  31
BILLINGS       FAIR      33  23  66 SW17      29.83F WCI  22
LIVINGSTON     PTSUNNY   31  21  66 SW33G47   29.89F HAZE    WCI  15
MILES CITY     FAIR      37  20  50 W20       29.79F WCI  27
BIG TIMBER     SUNNY     30  19  64 W40G51    29.86R HAZE    WCI  13
FORSYTH          N/A     37  19  48 SW15G22   29.79F WCI  28
HARLOWTON      FAIR      29  19  67 W28G35    29.82S WCI  14
LAUREL           N/A     30  27  86 SW9       29.86F WCI  22
ROUNDUP          N/A     37  13  37 W21       29.72F WCI  26
$$

REGIONAL REPORTS...DAKOTAS

CITY           SKY/WX    TMP DP  RH WIND       PRES   REMARKS
WILLISTON      FAIR      37  24  59 SW16      29.71F WCI  28
MINOT          FAIR      40  22  48 S13G24    29.74F
DICKINSON      FAIR      40  25  55 SW18      29.75F
BEACH          FAIR      37  23  56 SW20      29.78F WCI  27
CROSBY         FAIR      36  27  69 SW14G22   29.68F WCI  27
TIOGA          FAIR      34  28  80 SW15      29.70F WCI  24
BISMARCK       FAIR      42  21  43 SW10      29.84F
GRAND FORKS    FAIR      27  21  78 SE9       29.87F WCI  18
FARGO          FAIR      31  28  89 S8        29.91F WCI  23
BUFFALO SD       N/A     41  25  53 SW12      29.74F
RAPID CITY     FAIR      43  24  47 SW12      29.80F
$$

REGIONAL REPORTS...WYOMING/IDAHO/WASHINGTON

CITY           SKY/WX    TMP DP  RH WIND       PRES   REMARKS
GILLETTE       FAIR      31  22  69 W7        29.80S WCI  24
SHERIDAN         N/A     23  20  88 CALM      29.84R
BUFFALO WY     FAIR      32  18  56 W5        29.81R
CODY           FAIR      24  17  74 N3        29.85S
YELLOWSTONE LA   N/A     14  10  84 CALM      30.04S
IDAHO FALLS    CLOUDY    22  20  92 SW10      30.19S WCI  11
SALMON         CLOUDY    21  13  71 CALM      30.18F
BOISE          CLOUDY    37  21  52 N6        30.23F
SPOKANE        LGT SNOW  31  30  96 S9        30.05F FOG     WCI  23
$$

REGIONAL REPORTS...ALBERTA

CITY           SKY/WX    TMP DP  RH WIND       PRES   REMARKS
EDMONTON       MOSUNNY   41  23  48 W15G23    29.47S
CALGARY        PTSUNNY   43  14  31 W22G32    29.58S
LETHBRIDGE     PTSUNNY   39  21  48 SW29G41   29.67S WCI  28
MEDICINE HAT   CLOUDY    39  25  56 W23G29    29.62F WCI  29
$$

REGIONAL REPORTS...SASKATCHEWAN

CITY           SKY/WX    TMP DP  RH WIND       PRES   REMARKS
SWIFT CURRENT  CLOUDY    32  30  93 W20G25    29.57F FOG     WCI  20
REGINA         CLOUDY    32  19  59 SW18G25   29.57F WCI  20
SASKATOON      PTSUNNY   28  21  74 SW15      29.47F WCI  17
$$




USA.gov is the U.S. government's official web portal to all federal, state and local government web resources and services.